Location: Espaubourg
(49.4218°N, 1.8662°E)
Time: 17:08:48
(UTC+00:00)

Daily predictions for brighter satellites

Satellite Brightness Start Highest point End
(mag) Time Altitude Azimuth Time Altitude Azimuth Time Altitude Azimuth
AQUARIUS 4.2 17:14:02 10° SSE 17:18:31 85° ENE 17:23:01 10° NNW
Cosmos 1607 4.3 17:12:57 10° S 17:18:44 46° ESE 17:24:36 10° NE
Meteor PRIRODA 3.5 17:16:07 10° SSE 17:19:37 62° ENE 17:23:09 10° N
NOSS 3-4 (C) 4.5 17:13:38 10° NW 17:20:28 64° SW 17:28:15 10° SSE
Cosmos 1025 Rocket 3.1 17:16:44 10° SSW 17:20:59 83° W 17:25:19 10° N
YAOGAN 1 3.9 17:20:32 10° ESE 17:23:36 19° ENE 17:26:41 10° NNE
SL-4 R/B 1.7 17:21:03 10° WSW 17:24:28 74° SSE 17:28:07 10° ENE
Cosmos 2322 Rocket 3.8 17:22:33 10° SE 17:25:15 14° E 17:27:58 10° ENE
COBE Rocket 3.9 17:21:46 10° SSE 17:26:33 84° WSW 17:31:16 10° NNW
Cosmos 2227 Rocket 4.3 17:22:02 10° NW 17:27:02 33° WSW 17:31:59 10° SSW
Landsat 4 4.2 17:24:29 10° S 17:28:04 64° WSW 17:31:42 10° NNW
Cosmos 1975 Rocket 3.4 17:24:41 10° SSW 17:29:09 74° W 17:33:36 10° N
Cosmos 1892 4.2 17:28:51 10° SE 17:31:16 17° E 17:33:41 10° NE
ATLAS CENTAUR R/B 1.9 17:26:46 10° SSW 17:31:20 51° ESE 17:35:47 10° NE
NOSS 2-1 (E) 3.9 17:27:59 10° NW 17:32:16 89° NE 17:38:13 10° SE
Cosmos 1703 3.1 17:28:49 10° S 17:32:37 78° E 17:36:28 10° NNE
Cosmos 1536 Rocket 4.1 17:29:10 10° SSE 17:33:06 36° E 17:37:05 10° NNE
Cosmos 407 Rocket 4.0 17:28:43 10° S 17:33:28 39° ESE 17:38:13 10° NE
Cosmos 1340 Rocket 3.3 17:31:39 10° SSE 17:35:13 37° E 17:38:51 10° NNE
SL-16 R/B 3.3 17:32:47 10° SSE 17:37:16 25° ESE 17:41:46 10° NE
ARGOS 4.4 17:38:06 10° S 17:43:15 47° W 17:48:26 10° NNW
Cosmos 1606 Rocket 4.4 17:41:08 10° N 17:44:52 28° ENE 17:48:35 10° SE
Lacrosse 5 3.5 17:44:00 10° SSE 17:47:22 18° ESE 17:49:50 13° E
Cosmos 2369 3.8 17:43:15 10° SSW 17:48:55 83° WNW 17:54:39 10° NNE
BlueWalker 3 2.0 17:45:42 10° WSW 17:49:34 80° NNW 17:52:39 16° ENE
Cosmos 1140 Rocket 3.5 17:45:24 10° S 17:50:31 63° ESE 17:55:38 10° NNE
Cosmos 1655 Rocket 4.0 17:45:04 10° N 17:51:22 79° E 17:57:36 10° SSE
Cosmos 1825 3.6 17:49:25 10° SE 17:51:53 17° E 17:52:39 16° ENE
Cosmos 1408 2.8 17:49:20 10° SSE 17:52:31 39° E 17:55:45 10° NNE
NOAA 6 4.3 17:47:26 10° S 17:52:34 73° WSW 17:57:45 10° NNW
Cosmos 1980 Rocket 2.4 17:47:18 10° SSW 17:52:58 78° WNW 17:58:42 10° NNE
Radarsat Rocket 4.3 17:48:11 10° SSE 17:54:10 80° WSW 18:00:51 10° NNW
ATLAS 5 CENTAUR R/B 3.3 17:52:23 10° WNW 17:55:25 21° NNW 17:58:49 10° NNE
COSMO-SKYMED 1 2.6 17:51:30 10° NNE 17:55:49 58° E 18:00:06 10° S
SL-08 R/B 3.7 17:52:58 10° N 17:57:53 73° WNW 18:02:49 10° SSW
Cosmos 1023 Rocket 4.4 17:53:42 10° SSW 17:58:51 77° ESE 18:03:59 10° NNE
USA 281 4.4 17:52:49 10° NNE 17:58:52 41° NW 18:04:53 10° WSW
Cosmos 2228 2.9 17:55:05 10° N 17:59:18 63° ENE 18:03:29 10° SSE
Cosmos 1697 Rocket 3.9 17:54:32 10° WSW 17:59:51 41° NW 18:05:12 10° NNE
MOS 1-B 4.5 18:01:43 10° SE 18:07:18 51° ENE 18:12:54 10° N
Cosmos 2263 Rocket 3.1 18:01:58 10° NW 18:07:23 53° WSW 18:12:45 10° S
CZ-4 R/B 2.1 18:07:33 10° SE 18:11:13 32° ENE 18:14:52 10° N
PSLV R/B 3.6 18:12:58 10° SSE 18:16:34 60° ENE 18:20:13 10° N
Cosmos 1328 3.7 18:13:28 10° S 18:17:28 88° E 18:21:27 10° N
Cosmos 1726 Rocket 3.8 18:14:15 10° N 18:18:24 44° ENE 18:22:31 10° SSE
Okean O Rocket 2.1 18:14:25 10° SE 18:18:27 37° ENE 18:22:30 10° N
Meteor 1-11 4.4 18:13:16 10° SSE 18:18:52 51° E 18:24:27 10° NNE
Lacrosse 5 rocket 1.9 18:17:42 10° NW 18:20:59 33° NNE 18:21:53 29° NE
Cosmos 724 4.3 18:15:22 10° SSW 18:21:17 79° SE 18:26:26 15° NE
Cosmos 1184 Rocket 4.0 18:19:28 10° NNW 18:21:38 31° W 18:23:47 10° SSW
Cosmos 468 Rocket 4.0 18:16:34 10° NNW 18:21:41 54° ENE 18:26:42 10° SE
ISS -3.2 18:18:25 10° WNW 18:21:44 54° SSW 18:23:39 22° SE
RESURS DK-1 3.1 18:21:38 10° NNW 18:25:22 32° NE 18:25:55 31° ENE
Cosmos 1954 Rocket 4.1 18:24:14 10° S 18:29:17 51° ESE 18:32:56 18° NE
Cosmos 1553 Rocket 4.2 18:26:22 10° SSE 18:32:03 43° E 18:37:49 10° NNE
CZ-4C R/B 3.6 18:29:57 10° N 18:33:52 66° WNW 18:37:35 10° SSW
IRIDIUM 104 4.4 18:29:23 10° N 18:34:29 50° E 18:39:32 10° SSE
COSMOS 2455 3.7 18:29:14 10° WSW 18:35:03 48° NW 18:40:47 11° NNE
Cosmos 2251 Rocket 4.3 18:29:53 10° SW 18:35:06 53° WNW 18:40:23 10° NNE
CZ-4B R/B 3.0 18:31:58 10° SSE 18:37:18 78° ENE 18:42:45 10° NNW
SL-08 R/B 4.5 18:32:03 10° N 18:38:12 58° ENE 18:44:23 10° SSE
USA 290 4.1 18:35:56 10° WSW 18:38:49 30° WNW 18:41:24 12° N
Cosmos 1844 Rocket 2.6 18:33:43 10° NNW 18:39:18 68° ENE 18:43:47 16° SE
IRIDIUM 114 4.3 18:38:28 10° N 18:43:39 59° E 18:48:48 10° SSE
Cosmos 1763 Rocket 3.4 18:38:53 10° NNW 18:44:07 85° WSW 18:49:14 10° SSE
Cosmos 1844 3.7 18:39:49 10° NNW 18:45:38 67° ENE 18:49:24 22° SE
Feng Yun 1-1 Rocket 4.2 18:40:36 10° SSE 18:46:06 63° ENE 18:51:31 10° N
Spot 1 4.5 18:47:34 39° SE 18:47:34 39° SE 18:50:39 10° S
Cosmos 2058 Rocket 3.1 18:43:33 10° N 18:47:50 51° ENE 18:48:18 48° E
Cosmos 2278 4.2 18:44:37 10° SW 18:50:13 59° WNW 18:55:38 11° NNE
IRIDIUM 103 4.2 18:47:36 10° N 18:52:51 71° E 18:58:02 10° S
MINOTAUR 4 R/B 3.8 18:53:04 86° ENE 18:53:07 87° ESE 18:56:32 10° SSW
Cosmos 841 Rocket 3.6 18:48:38 10° NNW 18:53:48 50° ENE 18:54:41 45° E
ATLAS 2AS CENTAUR R/B 2.8 18:48:19 10° NW 18:55:22 73° SW 19:01:41 11° SSE
Cosmos 2333 Rocket 3.2 18:51:18 10° SSE 18:54:33 27° SE 18:54:33 27° SE
Cosmos 2360 Rocket 2.3 18:52:57 10° S 18:58:21 48° ESE 18:59:03 46° E
YAOGAN 1 3.2 18:55:04 10° S 18:59:18 56° W 19:03:34 10° NNW
Cosmos 2219 Rocket 4.3 18:56:13 10° SSE 18:56:22 11° SSE 18:56:22 11° SSE
Cosmos 2278 Rocket 3.7 18:58:04 10° N 19:01:28 20° NNE 19:01:28 20° NNE
SL-4 R/B 2.1 19:00:22 10° W 19:03:34 57° NNW 19:03:34 57° NNW
S3M 4.2 18:59:28 10° SSE 19:05:32 48° E 19:11:38 10° NNE
Cosmos 1892 3.9 19:02:47 10° SSW 19:06:20 41° WNW 19:09:55 10° N
Cosmos 540 Rocket 3.4 19:01:53 10° NNW 19:07:05 84° WSW 19:10:10 24° SSE
Cosmos 2322 Rocket 2.0 19:02:46 10° SSW 19:08:22 80° ESE 19:10:37 38° NE
ATLAS CENTAUR R/B 3.1 19:05:51 10° WSW 19:10:05 33° NW 19:12:01 23° N
Cosmos 676 Rocket 4.0 19:05:45 10° SSW 19:11:04 85° WNW 19:13:41 31° NNE
IRIDIUM 106 4.3 19:05:54 10° N 19:11:09 83° W 19:16:22 10° S
Cosmos 1461 3.9 19:12:23 10° SSW 19:15:09 38° S 19:15:09 38° S
SL-16 R/B 2.6 19:15:18 10° SW 19:20:55 63° WNW 19:24:12 26° NNE
Meteor 1-27 4.5 19:20:03 10° NNW 19:25:50 69° W 19:31:31 10° S
Cosmos 1825 3.4 19:23:17 10° SW 19:26:46 39° WNW 19:27:13 37° NW
Gblst 52 Del rocket 3.9 19:22:47 10° WSW 19:28:21 85° SSE 19:28:33 82° ESE
BlueWalker 3 3.3 19:24:44 10° WNW 19:27:27 36° NW 19:27:27 36° NW
Lacrosse 5 2.0 19:24:32 10° SW 19:29:05 67° SSW 19:29:05 67° SSW
CSL-04 Debris 4.0 19:29:17 62° SSE 19:30:15 90° ENE 19:35:42 10° NNW
Cosmos 1892 Rocket 4.3 19:30:01 10° SSW 19:34:20 52° WNW 19:35:28 40° NNW
Cosmos 1980 Rocket 4.4 19:33:49 10° W 19:37:56 20° NW 19:42:05 10° N
CSL-04 Rocket 3.6 19:39:31 83° NW 19:39:31 83° NW 19:44:45 10° NNW
ATLAS 5 CENTAUR R/B 4.0 19:39:02 10° NNW 19:40:51 14° N 19:40:51 14° N
BREEZE-M DEB (TANK) 3.7 19:35:22 10° WSW 19:45:22 54° S 19:45:22 54° S
CZ-4 R/B 3.4 19:42:31 10° SSW 19:46:07 28° W 19:49:41 10° NW
Cosmos 1745 Rocket 4.2 19:44:59 10° NNW 19:51:13 67° W 19:55:06 24° S
Okean O Rocket 3.6 19:51:06 10° SSW 19:54:52 27° W 19:58:39 10° NW
Cosmos 1943 Rocket 4.3 19:52:21 10° N 19:53:56 15° N 19:53:56 15° N
BREEZE-M DEB (TANK) 4.0 19:52:59 10° W 19:57:13 57° S 19:57:31 56° S
ISS -0.3 19:56:34 10° WSW 19:56:34 10° WSW 19:56:34 10° WSW
Lacrosse 5 rocket 3.9 19:56:28 10° WNW 19:57:18 16° WNW 19:57:18 16° WNW
Cosmos 1709 Rocket 4.4 20:04:01 10° NNW 20:08:56 57° NNW 20:08:56 57° NNW
Cosmos 2333 Rocket 4.2 20:34:47 10° SW 20:36:39 21° WSW 20:36:39 21° WSW
Cosmos 2360 Rocket 3.8 20:37:21 10° WSW 20:40:54 30° W 20:40:54 30° W
Cosmos 2278 Rocket 4.3 20:41:34 10° NNW 20:43:19 21° NNW 20:43:19 21° NNW
Cosmos 2322 Rocket 4.2 20:48:35 10° W 20:52:29 24° NW 20:52:29 24° NW
